EUS29JP EIDW-EINN

Flight info

Callsign EUS29JP
Flight time 0h 29m
Altitude 18000
Route PELIG2J PELIG DCT DIGAN DIGAN2E
Aircraft A320/M-SDE3FGHIRWY/LB1

Departure

Time 2026-05-01 13:07
Airport Dublin Airport (EIDW)

Arrival

Time 2026-05-01 13:36
Airport Shannon Airport (EINN)
Time Latitude Longitude Altitude Speed Heading
2026-05-01 12:51 53.43287 -6.25406 211 ft 0 kts 336°
2026-05-01 12:59 53.43275 -6.25397 214 ft 4 kts 334°
2026-05-01 12:59 53.43231 -6.25348 213 ft 4 kts 299°
2026-05-01 13:00 53.43227 -6.25316 213 ft 0 kts 246°
2026-05-01 13:01 53.43227 -6.25318 212 ft 2 kts 246°
2026-05-01 13:02 53.43207 -6.25392 212 ft 9 kts 246°
2026-05-01 13:07 53.43907 -6.33833 3427 ft 153 kts 275°
2026-05-01 13:07 53.43927 -6.35604 4235 ft 149 kts 273°
2026-05-01 13:07 53.43927 -6.37319 5015 ft 145 kts 270°
2026-05-01 13:08 53.43907 -6.38979 5752 ft 141 kts 266°
2026-05-01 13:08 53.43870 -6.40610 6425 ft 138 kts 263°
2026-05-01 13:08 53.43817 -6.42184 7032 ft 137 kts 259°
2026-05-01 13:08 53.43769 -6.43819 7522 ft 147 kts 270°
2026-05-01 13:09 53.44031 -6.45640 7821 ft 172 kts 281°
2026-05-01 13:09 53.44414 -6.47648 8120 ft 194 kts 281°
2026-05-01 13:09 53.44823 -6.49920 8404 ft 215 kts 280°
2026-05-01 13:09 53.45233 -6.52473 8671 ft 237 kts 278°
2026-05-01 13:10 53.45636 -6.55254 9032 ft 257 kts 277°
2026-05-01 13:10 53.46041 -6.58361 9113 ft 284 kts 277°
2026-05-01 13:10 53.46266 -6.61672 9104 ft 284 kts 263°
2026-05-01 13:10 53.45885 -6.64887 9178 ft 281 kts 243°
2026-05-01 13:11 53.44934 -6.67741 10037 ft 279 kts 233°
2026-05-01 13:11 53.43857 -6.70555 10697 ft 296 kts 233°
2026-05-01 13:11 53.42723 -6.73557 11286 ft 310 kts 233°
2026-05-01 13:11 53.41564 -6.76651 12110 ft 315 kts 233°
2026-05-01 13:12 53.40393 -6.79778 12973 ft 319 kts 233°
2026-05-01 13:12 53.39205 -6.82941 13776 ft 323 kts 233°
2026-05-01 13:12 53.37999 -6.86139 14547 ft 326 kts 233°
2026-05-01 13:12 53.36776 -6.89374 15281 ft 330 kts 233°
2026-05-01 13:13 53.35537 -6.92641 15997 ft 334 kts 233°
2026-05-01 13:13 53.34281 -6.95947 16699 ft 338 kts 232°
2026-05-01 13:13 53.33013 -6.99276 17387 ft 342 kts 232°
2026-05-01 13:13 53.31728 -7.02645 17914 ft 346 kts 232°
2026-05-01 13:14 53.30431 -7.06040 18076 ft 346 kts 232°
2026-05-01 13:14 53.29173 -7.09354 18107 ft 330 kts 232°
2026-05-01 13:14 53.27960 -7.12550 18117 ft 323 kts 232°
2026-05-01 13:14 53.26755 -7.15702 18118 ft 321 kts 232°
2026-05-01 13:15 53.25548 -7.18838 18119 ft 321 kts 231°
2026-05-01 13:15 53.24340 -7.21970 18112 ft 321 kts 231°
2026-05-01 13:15 53.23130 -7.25097 18110 ft 320 kts 231°
2026-05-01 13:15 53.21922 -7.28222 18109 ft 320 kts 231°
2026-05-01 13:16 53.20721 -7.31336 18109 ft 320 kts 231°
2026-05-01 13:16 53.19601 -7.34498 18110 ft 324 kts 238°
2026-05-01 13:16 53.18591 -7.37915 18111 ft 324 kts 238°
2026-05-01 13:17 53.15572 -7.47970 18112 ft 323 kts 237°
2026-05-01 13:17 53.14575 -7.51268 18114 ft 323 kts 237°
2026-05-01 13:18 53.12563 -7.57938 18109 ft 323 kts 237°
2026-05-01 13:18 53.11551 -7.61295 18111 ft 323 kts 237°
2026-05-01 13:18 53.10543 -7.64642 18113 ft 324 kts 237°
2026-05-01 13:18 53.09534 -7.67982 18116 ft 324 kts 237°
2026-05-01 13:19 53.08520 -7.71341 18117 ft 323 kts 237°
2026-05-01 13:19 53.07509 -7.74672 18117 ft 323 kts 237°
2026-05-01 13:19 53.05475 -7.81367 18121 ft 324 kts 237°
2026-05-01 13:20 53.04461 -7.84696 18121 ft 323 kts 237°
2026-05-01 13:20 53.03457 -7.87987 18122 ft 323 kts 237°
2026-05-01 13:20 53.02443 -7.91307 18122 ft 323 kts 237°
2026-05-01 13:21 53.00407 -7.97960 18119 ft 323 kts 237°
2026-05-01 13:21 52.99388 -8.01273 18119 ft 323 kts 236°
2026-05-01 13:21 52.98364 -8.04599 18118 ft 322 kts 236°
2026-05-01 13:21 52.97344 -8.07901 18118 ft 322 kts 236°
2026-05-01 13:22 52.96317 -8.11219 18115 ft 322 kts 236°
2026-05-01 13:22 52.95298 -8.14515 18115 ft 322 kts 236°
2026-05-01 13:22 52.94279 -8.17838 18115 ft 323 kts 238°
2026-05-01 13:22 52.93541 -8.21392 18115 ft 332 kts 250°
2026-05-01 13:23 52.93163 -8.25185 18116 ft 335 kts 254°
2026-05-01 13:23 52.92802 -8.29010 18116 ft 335 kts 253°
2026-05-01 13:23 52.92434 -8.32831 18116 ft 335 kts 253°
2026-05-01 13:23 52.92070 -8.36587 18114 ft 335 kts 253°
2026-05-01 13:24 52.91696 -8.40432 18113 ft 335 kts 253°
2026-05-01 13:24 52.91326 -8.44243 18111 ft 335 kts 253°
2026-05-01 13:24 52.90954 -8.48061 18110 ft 335 kts 253°
2026-05-01 13:25 52.90199 -8.55666 18097 ft 349 kts 253°
2026-05-01 13:25 52.89786 -8.59698 18092 ft 357 kts 253°
2026-05-01 13:25 52.89383 -8.63716 17992 ft 350 kts 254°
2026-05-01 13:25 52.88996 -8.67660 17642 ft 344 kts 254°
2026-05-01 13:26 52.88614 -8.71547 17215 ft 341 kts 254°
2026-05-01 13:26 52.88229 -8.75425 16775 ft 339 kts 254°
2026-05-01 13:26 52.87844 -8.79260 16346 ft 337 kts 254°
2026-05-01 13:26 52.87460 -8.83062 15937 ft 334 kts 254°
2026-05-01 13:27 52.86976 -8.86787 15413 ft 323 kts 245°
2026-05-01 13:27 52.86043 -8.90073 14649 ft 311 kts 231°
2026-05-01 13:27 52.83453 -8.95653 13227 ft 301 kts 227°
2026-05-01 13:28 52.80895 -9.01081 12445 ft 297 kts 227°
2026-05-01 13:28 52.79631 -9.03760 12061 ft 296 kts 228°
2026-05-01 13:29 52.77114 -9.09084 11280 ft 292 kts 228°
2026-05-01 13:29 52.74625 -9.14353 10490 ft 289 kts 229°
2026-05-01 13:30 52.69745 -9.24664 8869 ft 283 kts 229°
2026-05-01 13:31 52.67326 -9.29752 8030 ft 281 kts 229°
2026-05-01 13:31 52.62295 -9.31285 6661 ft 275 kts 150°
2026-05-01 13:32 52.59292 -9.27341 5664 ft 278 kts 140°
2026-05-01 13:33 52.56977 -9.19133 3922 ft 299 kts 73°
2026-05-01 13:33 52.59889 -9.14469 3044 ft 295 kts 36°
2026-05-01 13:34 52.62261 -9.09327 2311 ft 271 kts 57°
2026-05-01 13:34 52.64349 -9.04867 1652 ft 221 kts 54°
2026-05-01 13:35 52.66083 -9.01211 1139 ft 186 kts 54°
2026-05-01 13:35 52.66822 -8.99646 902 ft 162 kts 54°
2026-05-01 13:35 52.68081 -8.96978 481 ft 137 kts 55°
2026-05-01 13:36 52.68650 -8.95771 315 ft 134 kts 54°
2026-05-01 13:36 52.69218 -8.94565 140 ft 133 kts 54°
2026-05-01 13:36 52.70118 -8.92657 32 ft 38 kts 52°
2026-05-01 13:37 52.70285 -8.92307 34 ft 39 kts 52°
2026-05-01 13:37 52.70450 -8.91957 32 ft 38 kts 52°
2026-05-01 13:37 52.70613 -8.91606 30 ft 39 kts 52°
2026-05-01 13:37 52.70769 -8.91273 27 ft 34 kts 56°
2026-05-01 13:38 52.70646 -8.91138 23 ft 21 kts 170°
2026-05-01 13:38 52.70494 -8.91089 24 ft 23 kts 169°
2026-05-01 13:38 52.70325 -8.91036 23 ft 26 kts 169°
2026-05-01 13:39 52.70145 -8.91036 23 ft 27 kts 199°
2026-05-01 13:39 52.69960 -8.91137 23 ft 29 kts 198°
2026-05-01 13:39 52.69762 -8.91247 23 ft 31 kts 199°
2026-05-01 13:39 52.69557 -8.91361 23 ft 32 kts 198°
2026-05-01 13:40 52.69341 -8.91480 24 ft 29 kts 199°
2026-05-01 13:40 52.69196 -8.91613 25 ft 5 kts 220°
2026-05-01 13:40 52.69189 -8.91622 23 ft 0 kts 220°